Inquirer Daily News

Weather

Get conditions and forecasts for any City, State, ZIP code or Country:  
Northeast Philadelphia, PA
on Friday, January 4, 2013

Friday
Previous Day Next Day
Daily Summary
 ActualAverage (KTTN)Record (KTTN)
Temperature
Mean Temperature °F 31°F  
Max Temperature 37°F 39°F 68°F (2000)
Min Temperature 28°F 23°F -1°F (1918)
Degree Days
Heating Degree Days 32 34  
Month to date heating degree days 135  
Since 1 July heating degree days 2030  
Cooling Degree Days 0 0  
Month to date cooling degree days 0  
Year to date cooling degree days 0  
Moisture
Dew Point 19°F   
Average Humidity 55    
Maximum Humidity 64    
Minimum Humidity 48    
Precipitation
Precipitation 0.00 in 0.11 in 2.60 in (1982)
Month to date precipitation 0.44  
Year to date precipitation 0.44  
Wind
Wind Speed 10 mph   
Max Wind Speed 18 mph   
Max Gust Speed 28 mph   
Visibility 10 miles   
Events     

Key: T is trace of precipitation, MM is missing value
Source: NWS Daily Summary
Time(EST)TemperatureDew PointHumidity Pressure Visibility Wind DirectionWind SpeedGust SpeedPrecipitationEvents Conditions
12:54 AM 30.9°F 18.0°F 59% 30.12 in 10.0 miles SW 5.8 mph - N/A   Mostly Cloudy
1:54 AM 30.0°F 18.0°F 61% 30.13 in 10.0 miles SW 4.6 mph - N/A   Clear
2:54 AM 28.9°F 18.0°F 64% 30.14 in 10.0 miles WSW 6.9 mph - N/A   Clear
3:54 AM 32.0°F 19.0°F 59% 30.14 in 10.0 miles WSW 6.9 mph - N/A   Overcast
4:54 AM 33.1°F 19.0°F 56% 30.14 in 10.0 miles WSW 8.1 mph - N/A   Overcast
5:54 AM 33.1°F 19.0°F 56% 30.14 in 10.0 miles SW 6.9 mph - N/A   Overcast
6:54 AM 33.1°F 19.0°F 56% 30.15 in 10.0 miles WSW 9.2 mph - N/A   Overcast
7:54 AM 33.8°F 19.4°F 56% 30.14 in 10.0 miles WSW 10.4 mph - N/A   Overcast
8:54 AM 34.0°F 19.9°F 56% 30.15 in 10.0 miles WSW 10.4 mph 18.4 mph N/A   Overcast
9:54 AM 35.1°F 19.0°F 52% 30.16 in 10.0 miles West 12.7 mph 23.0 mph N/A   Overcast
10:54 AM 34.0°F 19.9°F 56% 30.14 in 10.0 miles West 16.1 mph 27.6 mph N/A   Overcast
11:54 AM 35.1°F 19.0°F 52% 30.12 in 10.0 miles West 13.8 mph 24.2 mph N/A   Overcast
12:54 PM 36.0°F 19.9°F 52% 30.09 in 10.0 miles West 18.4 mph 25.3 mph N/A   Overcast
1:54 PM 37.9°F 21.0°F 51% 30.05 in 10.0 miles WNW 16.1 mph 23.0 mph N/A   Scattered Clouds
2:54 PM 37.9°F 19.9°F 48% 30.04 in 10.0 miles West 15.0 mph - N/A   Clear
3:54 PM 37.9°F 19.9°F 48% 30.04 in 10.0 miles West 12.7 mph - N/A   Clear
4:54 PM 37.0°F 19.9°F 50% 30.04 in 10.0 miles WSW 12.7 mph - N/A   Clear
5:54 PM 35.6°F 19.4°F 52% 30.04 in 10.0 miles West 12.7 mph 19.6 mph N/A   Clear
6:54 PM 35.1°F 19.9°F 54% 30.06 in 10.0 miles WSW 11.5 mph - N/A   Clear
7:54 PM 36.0°F 19.9°F 52% 30.06 in 10.0 miles West 13.8 mph - N/A   Clear
8:54 PM 35.1°F 19.9°F 54% 30.06 in 10.0 miles West 13.8 mph 18.4 mph N/A   Clear
9:54 PM 35.1°F 19.0°F 52% 30.07 in 10.0 miles West 12.7 mph - N/A   Clear
10:54 PM 34.0°F 19.0°F 54% 30.09 in 10.0 miles West 9.2 mph - N/A   Clear
11:54 PM 32.0°F 19.0°F 59% 30.09 in 10.0 miles West 9.2 mph - N/A   Clear
Astronomy
Sunrise:07:22 AM (EST) Moon Rise:No Moon Rise/
Sunset:04:48 PM (EST) Moon Set:11:03 AM (EST)1/4
Moon Phase
Jan. 04 Jan. 04 Jan. 11 Jan. 18 Jan. 26

Copyright © 2014 The Weather Underground, Inc.